Dewpoint
-9 -11 -10 -8 -6 -6 -6 -6 -5 -3 -3 -2 -2 1 1 1 3 5 5 3 1 3 2 6 5 4 5 5 5 4 7 7 6 4 2 2 3 4 9 8 9 9 10 11 14
-10 -11 -10 -10 -7 -6 -7 -7 -6 -6 -4 -3 -1 -1 2 3 3 4 4 2 1 2 3 4 4 5 5 5 5 5 6 6 4 2 4 3 3 2 6 10 9 9 10 13 13
-15 -11 -13 -10 -9 -7 -6 -6 -6 -6 -7 -5 -2 -2 -1 2 3 2 2 2 1 2 6 6 5 5 5 5 4 3 5 3 3 2 2 3 1 2 4 9 10 8 9 12 13
-15 -16 -12 -12 -10 -9 -8 -6 -6 -6 -9 -7 -5 -3 -2 1 3 -1 0 0 2 2 5 6 5 5 6 5 4 5 4 3 2 1 1 2 0 1 4 3 8 8 7 13 13
-10 -15 -14 -13 -13 -12 -9 -9 -7 -6 -7 -10 -7 -5 -3 0 -0 -1 0 2 3 2 5 6 6 6 5 5 4 5 4 4 3 3 1 -0 0 1 -0 3 10 10 8 7 13
-15 -10 -16 -15 -11 -12 -12 -12 -9 -8 -7 -10 -8 -6 -4 1 -0 -1 1 3 3 2 5 6 6 6 7 5 4 3 4 4 3 3 2 0 -0 0 -0 8 10 11 12 12 13
-11 -13 -12 -14 -16 -11 -9 -10 -12 -12 -11 -9 -9 -6 -5 -2 1 -2 -0 2 3 3 3 6 5 4 6 5 4 4 5 3 3 2 2 0 0 1 -3 -0 10 11 11 11 8
-11 -11 -11 -14 -13 -15 -12 -10 -9 -11 -11 -9 -9 -5 -4 -2 0 -2 -1 2 3 2 3 3 4 5 6 5 4 5 4 6 2 2 1 0 3 -0 -1 -2 2 10 10 12 12
-12 -12 -11 -12 -14 -13 -13 -12 -12 -12 -12 -9 -7 -2 -2 1 -0 -3 -1 0 2 3 3 5 4 5 5 6 4 3 5 4 3 0 1 0 2 -1 -2 3 1 7 7 12 12
-10 -11 -12 -11 -13 -13 -13 -13 -12 -10 -10 -9 -3 -2 -3 -1 -1 -3 -1 2 1 2 3 4 4 4 4 4 4 5 5 4 4 2 1 2 1 -1 -2 -2 -1 10 8 9 11
-10 -10 -10 -11 -12 -13 -12 -12 -8 -6 -3 -6 -4 -3 -4 -2 -1 -2 -1 3 3 3 3 3 4 4 3 4 4 5 5 5 4 2 2 2 1 -2 -3 -2 2 8 10 8 9
-11 -11 -10 -10 -11 -9 -11 -10 -8 -7 -3 -10 -9 -4 -2 -2 -2 -2 1 3 4 4 2 3 4 3 2 3 4 4 5 4 3 1 2 2 2 -1 -2 -3 -0 2 9 9 9
-13 -14 -14 -10 -9 -8 -8 -8 -8 -7 -1 -7 -4 -6 -7 -3 -3 -4 1 2 3 4 3 3 1 2 3 3 4 4 4 4 4 2 2 2 2 1 -1 -3 -2 -3 5 7 10
-14 -14 -16 -16 -7 -8 -6 -8 -9 -6 -2 -5 -4 -4 -3 -3 -2 -2 1 0 1 4 3 3 1 3 3 4 3 5 2 3 3 3 4 2 6 3 1 -0 -3 1 3 7 9
-13 -15 -15 -15 -10 -8 -7 -8 -10 -1 -6 -7 -5 -3 -2 -3 -1 1 1 1 0 1 2 2 3 3 5 4 2 3 -0 1 1 2 3 3 4 3 1 0 -2 1 2 5 6
-8 -10 -13 -11 -12 -8 -4 -10 -3 -1 -5 -5 -4 -2 -1 -2 -2 0 1 0 -1 -2 -1 1 1 2 2 3 3 1 0 1 1 2 5 3 4 3 1 -0 -3 -4 4 3 6
-2 -3 -5 -10 -9 -6 -5 -3 0 -1 -8 -6 -3 -2 -2 -2 -1 -0 -0 1 -2 -1 -1 0 3 2 2 4 3 1 2 1 2 5 5 -1 3 3 -0 -1 -1 -3 2 3 3
-1 -1 -3 -3 -8 -6 -5 0 0 -5 -3 -6 -4 -2 -1 -2 -1 -0 -1 -0 -1 -2 -1 1 -2 3 2 3 3 2 1 2 4 2 3 2 4 3 -1 -1 -2 -2 -2 -2 4
-13 -4 -9 -10 -2 -2 -1 0 -2 -4 -7 -4 -6 -2 -3 -3 -5 -1 -1 -2 -2 -2 -1 1 2 1 2 3 1 2 3 1 5 4 5 3 0 -2 -2 -2 -2 -3 -3 -2 0
-3 0 -5 1 1 0 1 -1 -2 -4 -6 -5 -5 -6 -4 -4 -3 -3 -3 -4 -3 -3 -4 -3 0 1 2 2 2 2 0 5 5 5 5 3 2 2 -1 -1 -3 -4 -4 -4 -2
-3 -0 -2 1 2 1 0 -0 -1 -4 -4 -5 -5 -6 -6 -4 -4 -3 -5 -6 -4 -3 -4 -4 -2 -1 1 4 4 5 5 3 3 4 5 5 3 -1 -1 -3 -4 -3 -3 -3 -3
-5 0 -0 0 1 0 -0 -1 -2 -2 -4 -3 -5 -5 -6 -6 -3 -3 -3 -6 -6 -4 -2 -4 -2 0 2 -1 1 3 4 2 3 3 2 1 3 -2 -2 -3 -4 -3 -4 -5 -3
-4 -2 -3 -0 0 -1 -1 -1 -2 -2 -2 -3 -3 -3 -4 -4 -5 -3 -3 -5 -6 -4 -3 -3 -1 -1 -3 -2 0 3 3 2 1 2 3 4 3 -2 -3 -3 -4 -4 -4 -4 -6
-2 -1 -0 1 -0 1 1 1 1 -1 -2 -3 -3 -4 -3 -3 -5 -5 -5 -5 -5 -5 -5 -4 -3 -2 -3 -4 -1 1 2 2 2 3 3 3 2 -1 -2 -1 -1 -2 -2 -3 -5
-3 -3 -3 -2 -3 -4 -4 -2 -1 -1 0 -0 -1 -2 -1 -1 -2 -2 -4 -3 -3 -4 -1 -4 -1 -3 -3 -3 -3 -2 -1 2 4 2 4 0 2 -0 -2 -2 -2 -2 -2 -4 -5
-4 -4 -4 -4 -4 -5 -5 -5 -4 -4 -4 -2 0 0 2 1 -1 -1 -3 -3 -1 -1 -2 -3 -1 -2 -1 -3 -3 -3 -3 -3 1 2 3 2 1 -4 -5 -4 -3 -2 -3 -4 -6
-4 -4 -4 -5 -5 -5 -6 -6 -6 -6 -7 -7 -5 -3 -2 -3 -1 -2 -4 -6 -7 -4 -1 -1 -1 -1 -1 -3 -3 -1 -2 -3 -5 -5 -4 -1 -3 -5 -4 -4 -3 -4 -4 -6 -7
Wind_Speed
4 5 5 4 5 6 8 11 13 14 14 14 16 18 15 11 6 6 6 13 20 13 6 5 2 1 2 6 9 9 2 1 3 3 6 13 8 11 6 6 11 19 9 15 39
6 5 5 5 6 7 8 9 11 13 14 13 13 15 16 15 8 4 7 13 17 11 8 7 2 4 3 4 4 4 3 6 6 5 5 9 11 17 7 1 4 11 9 22 44
8 8 8 8 9 9 10 10 11 12 14 13 13 14 15 15 8 5 12 14 12 7 5 6 4 4 2 4 4 3 5 5 16 17 21 9 16 10 11 3 10 15 10 13 35
11 10 10 11 11 12 12 12 13 13 14 13 13 14 15 12 3 15 16 6 6 3 3 6 4 4 2 2 3 4 8 10 14 18 14 5 14 9 7 12 16 19 23 10 42
13 10 10 10 12 13 14 14 14 14 13 13 13 14 14 9 5 18 8 6 5 2 3 5 5 4 4 5 7 4 5 11 13 21 16 11 9 5 19 11 10 24 17 22 26
15 13 11 10 11 12 14 15 16 15 14 13 13 12 12 4 8 15 8 4 4 2 1 2 4 8 9 5 3 5 11 17 17 17 15 6 6 1 11 2 7 21 24 33 27
15 15 14 12 12 12 13 14 15 15 14 13 12 12 13 8 8 11 6 3 3 3 3 4 6 5 7 6 8 8 6 8 9 10 4 7 10 8 21 11 11 19 29 31 40
16 16 16 14 12 12 15 15 15 14 14 13 12 11 7 7 7 8 6 3 3 4 4 4 3 7 4 9 7 4 2 4 5 5 6 7 9 4 9 12 10 17 24 27 36
17 18 19 19 16 15 15 15 15 14 12 12 10 6 7 5 7 6 4 3 2 2 3 4 5 3 3 2 4 3 4 4 9 3 4 3 7 5 7 4 12 17 17 29 32
17 17 18 18 17 15 14 15 12 10 10 11 9 6 9 5 5 6 2 2 1 2 3 2 3 1 2 3 3 3 4 4 5 6 8 8 11 10 14 11 12 8 20 21 26
17 18 18 19 18 16 13 11 6 3 5 10 5 7 5 9 6 5 2 1 2 2 2 4 1 5 6 6 7 5 5 8 6 11 4 9 12 10 8 7 13 13 16 28 35
18 19 19 19 18 11 14 7 7 10 13 15 23 22 13 10 6 8 7 4 4 4 2 2 6 9 6 6 4 4 6 9 10 7 5 8 18 12 5 6 13 21 18 25 31
19 20 19 18 14 11 11 9 9 9 6 8 6 7 12 13 8 8 12 5 5 3 5 6 5 3 4 4 5 5 5 5 7 9 5 5 8 7 2 7 17 22 23 25 33
19 19 20 18 8 13 7 9 8 7 4 5 4 4 8 7 5 9 13 6 2 5 4 6 5 6 4 5 4 6 6 8 6 6 2 6 7 6 6 8 7 24 27 27 34
22 19 18 17 15 11 7 6 4 4 5 3 3 5 5 5 1 5 11 7 5 4 5 7 3 5 6 6 6 7 2 4 2 4 3 2 1 6 1 6 8 10 28 31 30
24 22 20 17 16 12 6 3 1 6 7 2 3 4 2 5 3 5 5 6 2 2 4 8 2 5 7 4 3 2 3 3 3 3 3 9 7 4 4 4 3 6 26 34 33
28 26 20 20 15 11 6 3 4 5 2 5 6 5 4 5 4 7 5 4 5 1 3 3 5 3 4 2 2 2 4 4 3 3 6 2 1 10 10 13 8 7 19 33 38
26 24 23 19 15 13 8 3 5 7 7 1 4 5 7 8 6 7 4 4 7 3 2 3 6 9 7 6 6 5 6 5 5 3 4 3 6 6 10 17 15 14 14 24 38
24 24 24 18 13 13 11 3 8 8 7 7 2 4 4 5 5 5 8 6 8 14 10 6 6 2 4 4 8 4 4 4 1 1 3 4 7 9 10 4 6 8 5 13 28
21 22 17 8 4 14 3 11 7 6 3 4 11 10 9 5 7 8 8 5 6 16 5 5 2 3 3 2 3 5 4 2 1 3 5 5 5 7 8 8 7 8 9 9 13
14 9 4 4 6 9 4 7 5 12 12 8 7 7 8 8 8 6 8 5 7 6 15 6 5 2 4 8 9 4 4 3 3 4 3 3 5 6 8 4 6 8 9 11 7
7 3 2 2 3 5 4 5 7 8 12 6 4 8 7 8 7 8 11 9 16 13 10 8 5 5 10 4 8 5 9 8 4 5 4 3 8 8 6 7 7 8 5 12 8
14 10 13 15 5 6 10 16 21 18 17 6 7 5 4 7 9 8 8 10 15 11 11 9 4 0 6 3 2 6 6 6 4 2 6 3 6 2 4 5 9 10 8 18 10
7 4 4 12 19 6 8 11 13 17 19 22 20 18 7 9 8 7 4 4 13 14 19 18 6 8 9 5 5 6 8 16 9 4 6 18 20 18 16 10 15 20 21 24 14
3 4 7 5 7 15 13 9 15 11 10 21 14 13 16 17 20 18 11 3 5 8 7 8 8 7 9 4 3 5 5 12 15 22 8 21 16 23 18 13 18 28 27 18 20
7 5 7 13 13 9 9 9 18 17 13 17 16 21 19 21 14 18 16 8 8 4 8 3 5 7 5 7 9 13 10 11 16 18 19 26 29 16 25 16 15 24 22 26 23
12 19 12 7 5 4 5 11 18 23 20 21 20 21 25 24 27 33 32 29 16 13 11 9 6 5 9 5 3 8 13 20 15 16 18 19 28 7 8 5 14 22 19 17 11
Wind_Direction
6 12 8 346 335 343 359 15 12 11 4 4 4 5 6 354 345 325 342 349 345 344 347 332 339 29 326 282 248 227 246 193 245 273 284 334 358 340 316 175 186 192 166 172 164
353 353 338 316 306 310 329 347 353 357 357 358 355 356 357 356 338 339 335 341 346 345 353 331 352 34 296 266 256 194 203 231 223 256 276 315 339 334 332 31 206 196 187 159 169
348 338 323 312 296 298 308 319 332 342 342 345 347 347 342 337 329 318 326 324 333 341 10 341 337 332 276 278 249 248 211 229 274 271 279 288 314 345 312 282 211 201 233 208 176
352 335 319 308 302 297 298 306 315 326 335 330 334 337 340 344 359 339 336 333 324 313 24 1 328 302 264 278 275 280 274 263 273 288 292 255 285 325 302 286 281 218 220 154 185
3 341 325 313 302 297 298 298 301 310 318 325 325 327 336 323 304 341 334 341 321 246 19 345 342 334 284 291 301 213 269 294 282 299 289 302 269 272 295 309 236 213 210 175 194
10 359 339 320 315 307 298 293 291 294 301 313 315 319 322 294 322 346 338 327 338 307 341 338 327 314 286 282 295 289 289 287 296 283 283 271 276 1 267 285 203 175 181 182 216
6 3 355 336 319 317 310 298 289 285 286 293 301 306 301 276 315 341 332 303 328 342 274 290 315 325 313 301 315 289 310 316 273 267 276 287 277 209 260 267 211 199 202 194 210
357 356 354 345 326 315 316 308 295 284 277 280 289 292 263 270 290 327 347 297 286 309 320 317 311 302 249 306 311 311 347 334 295 323 271 150 273 241 214 282 246 192 204 207 199
355 352 350 348 339 327 323 315 302 289 270 270 280 258 268 236 262 310 341 291 282 279 292 321 298 263 303 317 323 340 269 273 316 344 288 188 259 232 206 313 270 213 180 203 202
353 349 346 345 341 334 330 326 308 289 264 263 238 265 235 243 249 294 323 13 254 305 297 245 236 315 6 81 241 305 312 300 271 301 342 278 268 264 263 278 278 259 190 167 202
347 347 344 343 342 337 341 344 331 294 252 230 241 238 296 251 265 273 251 220 273 285 217 221 87 244 242 229 240 285 278 276 278 279 293 283 282 281 260 244 244 238 206 194 194
340 341 342 341 341 347 349 12 339 305 301 274 256 248 253 257 263 236 210 203 181 247 249 311 236 240 247 253 241 256 287 288 287 276 328 300 290 274 241 200 237 242 207 213 203
333 334 336 341 335 340 347 350 334 327 287 293 250 240 222 228 237 242 198 206 215 233 233 211 234 175 212 267 279 257 228 269 264 311 275 308 281 262 277 218 231 238 227 211 199
322 327 330 336 326 331 326 330 329 328 37 270 241 229 185 192 251 215 198 206 244 236 236 246 258 203 219 248 220 275 236 237 296 1 281 52 297 230 254 261 223 224 222 215 211
315 318 321 324 314 312 310 313 323 338 358 208 187 172 188 192 105 196 190 196 213 212 107 251 197 205 230 231 178 234 268 244 222 296 338 295 327 272 39 275 262 229 224 218 216
313 315 317 317 310 300 284 272 249 47 255 271 147 174 143 229 236 165 196 219 240 266 229 234 240 192 210 224 224 314 301 347 56 121 289 224 184 287 240 196 260 228 224 220 212
312 312 317 309 304 294 276 232 32 153 278 221 206 169 199 217 223 181 177 189 193 95 270 300 210 193 170 191 234 110 59 326 343 211 233 306 191 250 275 262 225 233 224 223 219
305 308 306 300 296 264 227 53 202 226 227 46 160 150 191 168 236 184 182 244 228 156 100 192 310 168 185 188 185 172 162 164 238 238 262 190 237 250 231 258 276 257 251 235 227
316 311 309 303 266 226 189 177 210 198 209 177 102 184 240 239 198 148 211 215 214 174 183 170 273 183 175 160 148 199 188 190 273 313 271 233 286 294 269 284 329 274 268 225 232
334 327 320 324 223 195 166 237 230 209 188 147 202 186 205 215 181 182 193 208 228 187 175 209 279 202 161 134 220 165 164 121 79 265 271 280 262 234 291 318 334 328 313 291 247
336 328 303 324 184 184 215 236 300 272 260 196 232 247 224 198 202 207 223 248 210 194 181 152 149 276 135 206 179 155 200 198 171 181 216 303 262 216 225 246 311 294 308 336 297
342 297 256 188 193 231 227 231 302 318 315 284 260 214 222 219 226 227 216 219 194 145 173 199 162 200 214 226 196 187 190 165 156 222 223 155 270 259 253 288 279 268 302 3 350
324 271 258 256 249 240 273 275 284 283 282 283 278 232 208 236 240 206 223 227 190 163 173 177 216 326 322 356 155 207 194 196 126 80 204 185 258 303 314 352 306 313 310 330 319
319 311 281 232 245 288 307 276 267 278 266 260 267 273 270 258 222 254 238 245 209 209 194 164 179 184 200 200 144 193 196 202 181 173 223 232 265 264 275 292 291 284 285 300 302
318 292 16 326 330 319 316 297 301 307 314 325 280 258 252 260 262 261 272 279 251 229 185 171 211 205 238 215 202 208 187 192 206 226 199 262 236 255 265 258 256 269 285 269 288
316 344 308 297 292 294 301 307 297 304 313 301 293 306 294 275 268 267 262 214 216 197 183 199 235 173 266 248 218 246 227 224 216 230 236 251 266 273 270 260 262 263 256 269 279
298 298 285 264 260 272 268 287 295 303 298 286 296 303 284 276 283 296 270 259 250 220 201 172 165 149 251 214 276 267 211 235 232 228 229 241 249 237 267 250 251 271 268 257 251
Height
1550 1549 1548 1548 1548 1547 1545 1543 1541 1539 1537 1535 1532 1529 1526 1524 1523 1522 1520 1520 1516 1515 1513 1512 1511 1509 1508 1508 1508 1508 1511 1514 1510 1505 1500 1494 1493 1489 1485 1484 1486 1484 1484 1485 1492
1550 1549 1548 1547 1547 1546 1545 1543 1541 1539 1537 1534 1532 1529 1526 1524 1522 1520 1520 1517 1515 1514 1513 1512 1512 1508 1508 1508 1507 1506 1511 1508 1502 1499 1497 1493 1491 1491 1486 1484 1483 1482 1487 1491 1490
1550 1548 1548 1547 1546 1545 1544 1542 1540 1538 1536 1534 1531 1529 1526 1523 1522 1520 1518 1515 1514 1513 1512 1512 1511 1510 1507 1507 1505 1502 1505 1502 1498 1497 1496 1493 1490 1489 1487 1482 1479 1479 1482 1489 1495
1549 1548 1547 1546 1545 1543 1542 1540 1539 1537 1535 1533 1530 1528 1525 1523 1526 1519 1515 1513 1513 1512 1512 1512 1511 1510 1507 1506 1503 1504 1498 1498 1494 1495 1493 1491 1490 1487 1487 1483 1478 1478 1479 1483 1492
1549 1547 1545 1544 1542 1541 1539 1538 1536 1535 1533 1531 1529 1527 1525 1523 1521 1518 1515 1514 1512 1512 1511 1510 1510 1510 1509 1504 1502 1500 1497 1495 1493 1491 1489 1488 1488 1486 1483 1479 1477 1475 1477 1477 1492
1549 1546 1544 1542 1540 1538 1536 1535 1533 1532 1530 1529 1527 1525 1524 1523 1519 1516 1514 1513 1512 1511 1511 1510 1509 1509 1508 1504 1502 1497 1495 1491 1488 1487 1485 1485 1484 1484 1480 1480 1479 1477 1478 1475 1486
1548 1545 1542 1540 1538 1536 1533 1531 1529 1528 1527 1526 1524 1522 1520 1518 1515 1514 1512 1512 1511 1510 1510 1509 1508 1508 1507 1504 1500 1496 1495 1487 1483 1482 1484 1484 1481 1482 1477 1479 1480 1479 1479 1481 1476
1547 1544 1541 1538 1535 1533 1531 1528 1525 1524 1524 1523 1522 1520 1515 1513 1513 1512 1511 1510 1509 1509 1508 1508 1507 1506 1505 1503 1500 1499 1496 1497 1482 1481 1480 1482 1483 1475 1475 1475 1476 1476 1478 1482 1484
1547 1544 1541 1537 1534 1531 1528 1525 1522 1521 1520 1520 1520 1518 1513 1511 1510 1510 1509 1508 1508 1508 1508 1507 1507 1505 1503 1504 1507 1503 1505 1498 1489 1480 1481 1480 1479 1473 1472 1472 1471 1474 1476 1479 1480
1547 1543 1540 1536 1532 1529 1526 1522 1519 1518 1517 1517 1517 1520 1512 1509 1508 1508 1508 1508 1507 1506 1507 1506 1506 1505 1505 1508 1521 1504 1504 1497 1496 1482 1481 1481 1475 1471 1472 1470 1469 1470 1471 1473 1477
1546 1543 1539 1535 1531 1527 1525 1521 1522 1519 1515 1510 1509 1508 1509 1508 1508 1507 1507 1508 1508 1507 1507 1505 1508 1510 1504 1503 1500 1501 1502 1500 1492 1482 1482 1479 1472 1467 1467 1467 1464 1466 1469 1469 1469
1545 1541 1538 1534 1530 1527 1524 1523 1523 1522 1511 1504 1502 1503 1505 1506 1506 1504 1506 1507 1506 1509 1506 1507 1508 1499 1499 1498 1497 1498 1500 1498 1488 1480 1480 1476 1466 1463 1461 1463 1462 1462 1465 1466 1467
1544 1540 1537 1533 1530 1527 1524 1523 1521 1520 1516 1500 1498 1497 1499 1503 1502 1501 1504 1504 1504 1504 1504 1507 1498 1494 1496 1497 1498 1497 1499 1497 1494 1482 1475 1475 1465 1456 1454 1453 1454 1455 1459 1461 1462
1540 1537 1534 1531 1531 1526 1524 1522 1520 1520 1526 1503 1498 1497 1497 1498 1498 1496 1498 1502 1502 1502 1501 1500 1494 1494 1495 1496 1497 1500 1490 1490 1488 1492 1497 1480 1480 1460 1451 1450 1449 1446 1449 1453 1456
1536 1534 1531 1528 1527 1525 1524 1521 1520 1520 1549 1497 1496 1496 1496 1499 1497 1496 1497 1498 1499 1498 1501 1498 1493 1495 1496 1493 1491 1495 1488 1488 1486 1494 1492 1484 1497 1453 1452 1450 1446 1443 1441 1444 1448
1531 1530 1528 1527 1524 1524 1521 1519 1520 1535 1539 1495 1495 1496 1497 1496 1495 1495 1496 1497 1497 1497 1495 1492 1490 1490 1489 1487 1488 1487 1488 1488 1492 1496 1502 1483 1483 1465 1450 1443 1439 1436 1436 1436 1440
1527 1526 1525 1523 1523 1522 1521 1521 1534 1538 1494 1491 1492 1493 1495 1493 1492 1492 1494 1497 1499 1503 1503 1490 1486 1484 1485 1488 1486 1488 1493 1525 1510 1492 1492 1499 1491 1452 1440 1434 1434 1433 1432 1432 1434
1521 1519 1517 1518 1517 1517 1520 1523 1531 1500 1496 1482 1485 1488 1492 1486 1486 1488 1490 1494 1489 1490 1509 1502 1492 1481 1479 1482 1486 1490 1494 1511 1508 1518 1494 1480 1474 1446 1427 1424 1427 1427 1427 1428 1430
1514 1513 1510 1509 1509 1512 1517 1532 1505 1496 1481 1483 1484 1489 1488 1481 1481 1484 1488 1485 1476 1478 1489 1494 1486 1473 1474 1474 1479 1488 1495 1485 1488 1490 1492 1477 1455 1435 1422 1421 1420 1420 1422 1423 1425
1511 1509 1506 1505 1506 1509 1512 1499 1489 1478 1475 1477 1482 1480 1484 1479 1484 1484 1480 1466 1465 1463 1466 1472 1482 1472 1473 1475 1474 1477 1479 1487 1491 1501 1487 1472 1463 1446 1427 1423 1419 1418 1419 1419 1420
1509 1508 1505 1504 1506 1507 1510 1497 1484 1478 1477 1477 1474 1473 1474 1474 1475 1479 1467 1458 1456 1460 1463 1468 1475 1478 1474 1472 1474 1478 1479 1481 1483 1486 1487 1482 1459 1432 1427 1421 1420 1418 1416 1416 1413
1509 1507 1502 1502 1506 1501 1496 1487 1481 1476 1477 1473 1468 1467 1468 1468 1469 1472 1464 1452 1448 1452 1465 1462 1472 1483 1470 1460 1461 1463 1464 1470 1483 1474 1484 1492 1448 1418 1419 1420 1418 1416 1414 1414 1413
1512 1506 1500 1500 1499 1496 1491 1484 1484 1479 1479 1473 1467 1464 1460 1460 1464 1459 1453 1443 1445 1446 1452 1455 1468 1486 1468 1464 1461 1461 1459 1457 1462 1471 1468 1474 1445 1418 1419 1417 1418 1418 1415 1414 1413
1514 1508 1498 1495 1493 1492 1490 1480 1479 1474 1469 1468 1463 1463 1461 1457 1453 1449 1446 1442 1440 1440 1439 1442 1455 1453 1454 1440 1446 1452 1449 1448 1455 1470 1451 1438 1425 1417 1415 1420 1416 1414 1415 1415 1412
1516 1510 1508 1502 1496 1495 1495 1489 1482 1479 1472 1469 1459 1457 1458 1453 1445 1443 1444 1442 1440 1437 1438 1440 1448 1447 1441 1437 1439 1439 1439 1443 1448 1435 1445 1415 1428 1409 1412 1414 1411 1409 1410 1411 1409
1518 1516 1510 1506 1502 1498 1495 1489 1482 1475 1474 1467 1468 1462 1458 1447 1442 1437 1440 1442 1437 1435 1437 1437 1440 1442 1441 1435 1438 1437 1438 1436 1436 1432 1432 1420 1410 1407 1401 1404 1404 1404 1404 1404 1404
1515 1513 1510 1500 1498 1498 1492 1483 1477 1476 1469 1467 1464 1459 1445 1442 1445 1436 1432 1427 1425 1426 1432 1434 1438 1442 1431 1433 1435 1438 1427 1420 1416 1416 1414 1421 1397 1399 1398 1399 1399 1397 1397 1397 1397